Regional Weather Roundup
Issued by NWS

Home | Current Version | Previous Version | Text Only | Print | Product List | Glossary On
Versions: 1 2 3 4 5 6 7 8 9 10 11 12 13 14 15 16 17 18 19 20 21 22 23 24 25 26 27 28 29 30 31 32 33 34 35 36 37 38 39 40 41 42 43 44 45 46 47 48 49 50
000
ASUS44 KFWD 040715
RWRTX
NORTH TEXAS HOURLY WEATHER ROUNDUP
NATIONAL WEATHER SERVICE FORT WORTH TX
200 AM CDT FRI SEP 04 2015

NOTE: "FAIR" INDICATES FEW OR NO CLOUDS BELOW 12,000 FEET WITH NO
SIGNIFICANT WEATHER AND/OR OBSTRUCTIONS TO VISIBILITY.

TXZ118-119-040800-
DALLAS/FORT WORTH METROPLEX

CITY           SKY/WX    TMP DP  RH WIND       PRES   REMARKS
DFW AIRPORT    PTCLDY    82  68  62 SE8       29.89S
DALLAS LOVE    PTCLDY    83  68  60 SE12      29.89S
FTW MEACHAM    CLEAR     83  68  60 SE8       29.89S
DAL-EXECUTIVE  CLEAR     81  69  67 SE8       29.90R
FTW-ALLIANCE   CLEAR     78  68  71 SE5       29.89F
FTW-NAS-JRB    CLEAR     83  68  60 SE8       29.90S
FTW-SPINKS     CLEAR     78  68  73 SE6       29.91S
ARLINGTON      CLEAR     82  68  62 SE7       29.90S
GRAND PRAIRIE  CLEAR     81  70  68 SE5       29.91S
ADDISON        CLEAR     82  70  66 SE8       29.91S
MESQUITE       CLEAR     78  67  70 SE5       29.90S
LANCASTER      CLEAR     79  66  65 SE6       29.91S
$$

TXZ091>094-102>105-117-120-121-131>134-040800-
NORTH CENTRAL TEXAS

CITY           SKY/WX    TMP DP  RH WIND       PRES   REMARKS
SHRMAN/DENISON CLEAR     79  70  72 SE7       29.92R
GAINESVILLE    CLEAR     75  67  74 SE3       29.93S
BOWIE          CLEAR     73  65  76 CALM      29.92S
BRIDGEPORT     CLEAR     75  66  73 SE3       29.92S
DECATUR        CLEAR     77  64  65 SE6       29.92S
DENTON         CLEAR     76  67  73 CALM      29.90S
MCKINNEY       CLEAR     78  69  73 CALM      29.90S
GREENVILLE     CLEAR     75  68  78 SE5       29.91S
ROCKWALL       CLEAR     80  69  68 SE8       29.89S
TERRELL        CLEAR     79  69  71 SE7       29.91R
WAXAHACHIE     CLEAR     78  70  74 SE5       29.92R
CLEBURNE       CLEAR     79  70  73 SE7       29.92S
GRANBURY       CLEAR     80  67  66 SE3       29.91S
$$

TXZ083>090-098>101-113>116-127>130-139>142-154-155-040800-
WESTERN NORTH TEXAS

CITY           SKY/WX    TMP DP  RH WIND       PRES   REMARKS
WICHITA FALLS  CLEAR     75  64  68 SE8       29.89S
WF-KICKAPOO    CLEAR     78  65  63 SE7       29.90S
VERNON         CLEAR     78  58  49 S8        29.91R
ABILENE        CLEAR     76  63  64 S12       29.92F
ABILENE-DYESS  CLEAR     77  64  63 S10       29.91S
BRECKENRIDGE   CLEAR     78  63  60 SE7       29.90F
GRAHAM         CLEAR     78  67  69 SE6       29.89S
MINERAL WELLS  CLEAR     75  66  73 SE3       29.89S
STEPHENVILLE   CLEAR     75  64  70 CALM      29.95S
COMANCHE       CLEAR     75  66  73 S6        29.93S
BROWNWOOD      CLEAR     73  66  78 SE6       29.93R
COLEMAN        CLEAR     77  64  64 SE6       29.93S
BRADY          CLEAR     75  66  73 SE6       29.94R
$$

TXZ143>147-156>162-174-175-040800-
CENTRAL TEXAS

CITY           SKY/WX    TMP DP  RH WIND       PRES   REMARKS
WACO           CLEAR     80  70  71 S12       29.91R
WACO-MCGREGOR  CLEAR     78  71  79 SE8       29.91R
HILLSBORO      CLEAR     78  66  67 SE8       29.91S
CORSICANA      CLEAR     78  70  76 S6        29.92R
MEXIA          CLEAR     76  69  80 E7        29.91S
HEARNE         CLEAR     76  72  88 CALM      29.92R
CAMERON        CLEAR     77  72  83 CALM      29.91S
TEMPLE         CLEAR     75  66  73 S7        29.92R
KILLEEN        CLEAR     75  70  85 S7        29.91S
KILLEEN-SKYLRK CLEAR     77  66  69 S8        29.90R
FORT HOOD      CLEAR     77  71  83 S10       29.90S
GATESVILLE     CLEAR     77  70  78 SE3       29.94S
HAMILTON       CLEAR     75  66  72 S8        29.94R
$$

TXZ095>097-106>112-122>126-135>138-148>153-164>167-040800-
EAST TEXAS

CITY           SKY/WX    TMP DP  RH WIND       PRES   REMARKS
PARIS          CLEAR     75  61  60 SE5       29.92S
SULPHUR SPRNGS CLEAR     80  67  65 SE6       29.94R
MOUNT PLEASANT CLEAR     74  69  83 E3        29.93R
GILMER         CLEAR     74  70  88 CALM      29.91S
MINEOLA        CLEAR     77  72  83 CALM      29.92S
TYLER          CLEAR     77  69  76 S5        29.91S
LONGVIEW       CLEAR     77  71  82 S3        29.91S
MARSHALL       CLEAR     76  73  90 CALM      29.94S
ATHENS         CLEAR     73  70  88 CALM      29.90S
PALESTINE      CLEAR     77  72  84 SE3       29.92S
JACKSONVILLE   CLEAR     77  71  82 S6        29.94S
HENDERSON      CLEAR     73  70  90 CALM      29.93S
CENTER         FAIR      75  72  88 CALM      29.92S
NACOGDOCHES    CLEAR     73  70  88 CALM      29.92S
LUFKIN         CLEAR     74  72  93 CALM      29.91S
$$

SUPPLEMENTAL OBSERVATIONS (CENTRAL)

CITY           SKY/WX    TMP DP  RH WIND       PRES   REMARKS
LAKE TEXOMA      N/A     77  66  69 SE5         N/A
CADDO GRASSLND   N/A     75  66  73 S5          N/A
PAT MAYSE LAKE   N/A     79  64  61 SE8         N/A
GREENVILLE       N/A     79  66  65 SE3         N/A
CEDAR HILL       N/A     79  66  65 SE5         N/A
ATHENS           N/A     79  70  73 S2          N/A
LAKE LIMESTONE   N/A     75  68  78 S3          N/A
MCGREGOR         N/A     77  70  78 S5          N/A
TEMPLE           N/A     75  70  83 S3          N/A
$$

SUPPLEMENTAL OBSERVATIONS (WEST)

CITY           SKY/WX    TMP DP  RH WIND       PRES   REMARKS
MILLERS CREEK    N/A     79  64  61 SE10        N/A
POSSUM KINGDOM   N/A     79  63  57 SE6         N/A
LBJ GRASSLAND    N/A     79  66  65 SE5         N/A
GRANBURY         N/A     79  66  65 SE6         N/A
COMANCHE         N/A     75  63  64 S6          N/A
HAMBY            N/A     79  63  57 SE9         N/A
IVIE RESERVOIR   N/A     75  61  60 E6          N/A
COLORADO BEND    N/A     77  66  69 SW7         N/A
$$

SUPPLEMENTAL OBSERVATIONS (EAST)

CITY           SKY/WX    TMP DP  RH WIND       PRES   REMARKS
TEXARKANA        N/A     70  68  94 CALM        N/A
LINDEN           N/A     73  66  78 CALM        N/A
CADDO LAKE       N/A     70  68  94 CALM        N/A
LUFKIN           N/A     73  68  83 MISG        N/A
N SABINE NF      N/A     73  70  88 MISG        N/A
$$

SUPPLEMENTAL OBSERVATIONS ARE A COLLECTION OF AUTOMATED INSTRUMENTS
THAT ARE MAINTAINED BY A VARIETY OF FEDERAL AND STATE AGENCIES.
CERTAIN ELEMENTS...SUCH AS HUMIDITY VALUES AND SUSTAINED WIND
SPEEDS...MAY BE APPROXIMATED.



USA.gov is the U.S. government's official web portal to all federal, state and local government web resources and services.